Total_Precipitation_Accumulation
1.30 1.35 1.38 1.33 1.32 1.30 1.25 1.19 1.22 1.29 1.29 1.27 1.41 1.51 1.58 1.67 1.83 2.06 2.21 2.22 2.17 2.19 2.19 2.27 2.47 2.60 2.82 2.77 2.66 2.61 2.54 2.46 2.36 2.09 1.82 1.66 1.72 1.74 1.86 1.98 1.98 1.91 1.74
1.41 1.46 1.41 1.35 1.30 1.27 1.23 1.15 1.12 1.08 1.05 1.15 1.28 1.32 1.36 1.38 1.58 1.87 2.06 2.12 2.11 2.02 1.97 2.09 2.33 2.53 2.74 2.85 2.80 2.69 2.65 2.53 2.45 2.43 2.23 1.99 1.87 1.87 2.02 2.11 2.06 2.00 1.95
1.49 1.40 1.35 1.28 1.19 1.14 1.06 1.02 1.05 1.04 1.10 1.20 1.24 1.27 1.30 1.35 1.38 1.51 1.71 1.85 1.85 1.81 1.82 1.84 1.87 2.08 2.39 2.60 2.65 2.72 2.75 2.72 2.72 2.61 2.46 2.37 2.23 2.01 2.11 2.18 2.14 2.16 2.05
1.64 1.55 1.44 1.35 1.25 1.19 1.09 1.00 0.97 1.00 1.09 1.18 1.20 1.25 1.33 1.38 1.38 1.40 1.42 1.49 1.54 1.63 1.67 1.68 1.72 1.77 2.02 2.25 2.34 2.51 2.75 2.81 2.90 2.87 2.62 2.52 2.49 2.22 2.25 2.38 2.45 2.35 2.25
1.60 1.61 1.50 1.35 1.24 1.18 1.11 1.01 0.97 0.98 1.00 1.08 1.13 1.14 1.18 1.28 1.38 1.43 1.31 1.28 1.37 1.46 1.45 1.40 1.44 1.62 1.84 1.98 1.97 2.24 2.58 2.80 2.88 2.88 2.72 2.70 2.54 2.36 2.20 2.17 2.32 2.52 2.50
1.40 1.43 1.28 1.14 1.02 0.97 0.99 0.99 0.98 0.95 0.99 1.02 0.97 0.98 1.06 1.09 1.36 1.40 1.24 1.15 1.20 1.31 1.39 1.38 1.27 1.29 1.42 1.55 1.61 1.76 2.02 2.26 2.59 2.83 2.77 2.68 2.41 2.26 2.22 2.19 2.21 2.30 2.47
1.00 1.02 0.97 0.92 0.91 0.96 1.01 0.98 0.97 0.97 0.98 0.99 0.95 0.94 0.96 1.09 1.23 1.13 1.17 1.10 1.13 1.19 1.28 1.37 1.28 1.18 1.35 1.37 1.51 1.60 1.57 1.66 2.00 2.39 2.55 2.58 2.56 2.45 2.37 2.21 2.16 2.23 2.26
0.71 0.75 0.75 0.76 0.81 0.89 0.92 0.92 0.99 1.03 0.97 0.97 1.01 1.01 1.00 1.07 1.12 1.03 1.13 1.08 1.05 1.09 1.22 1.33 1.38 1.31 1.36 1.50 1.46 1.47 1.41 1.42 1.71 1.74 1.98 2.38 2.53 2.56 2.45 2.45 2.59 2.55 2.38
0.41 0.44 0.49 0.55 0.59 0.63 0.67 0.76 0.90 0.98 1.00 1.03 1.08 1.08 0.99 0.99 1.10 1.05 1.09 1.05 1.04 1.06 1.09 1.18 1.28 1.22 1.48 1.64 1.51 1.62 1.62 1.52 1.78 1.91 1.98 2.08 2.26 2.44 2.47 2.40 2.43 2.50 2.46
0.28 0.32 0.36 0.41 0.45 0.48 0.55 0.63 0.72 0.78 0.87 0.98 1.01 1.01 1.02 0.99 1.23 1.17 1.16 1.04 1.06 1.13 1.15 1.12 1.32 1.35 1.53 1.55 1.39 1.59 1.64 1.60 1.61 1.68 1.68 1.71 1.66 1.85 2.14 2.18 2.37 2.43 2.33
0.34 0.35 0.37 0.39 0.41 0.47 0.53 0.59 0.64 0.71 0.81 0.88 0.92 0.95 1.02 1.12 1.32 1.33 1.35 1.20 1.18 1.27 1.23 1.13 1.08 1.31 1.24 1.35 1.36 1.32 1.59 1.67 1.60 1.72 1.75 1.64 1.60 1.66 1.78 1.92 2.18 2.34 2.31
0.37 0.39 0.41 0.42 0.45 0.48 0.54 0.60 0.64 0.69 0.73 0.79 0.83 0.88 0.93 1.02 1.12 1.20 1.23 1.23 1.24 1.23 1.25 1.13 1.14 1.31 1.16 1.15 1.13 1.22 1.49 1.61 1.54 1.67 1.73 1.73 1.64 1.58 1.62 1.72 1.82 1.90 1.93
0.39 0.40 0.44 0.45 0.47 0.47 0.51 0.58 0.63 0.66 0.70 0.74 0.79 0.85 0.91 0.95 1.02 1.08 1.05 1.08 1.15 1.14 1.12 1.21 1.25 1.24 1.12 1.02 1.02 1.13 1.23 1.31 1.49 1.57 1.54 1.55 1.55 1.58 1.62 1.62 1.66 1.69 1.70
0.39 0.42 0.43 0.43 0.45 0.48 0.51 0.55 0.60 0.64 0.67 0.72 0.79 0.83 0.86 0.91 0.94 0.95 1.02 1.07 1.03 1.01 1.02 1.04 1.06 1.08 1.06 0.98 0.98 1.05 1.13 1.25 1.37 1.37 1.36 1.37 1.46 1.58 1.71 1.74 1.73 1.71 1.74
0.36 0.39 0.39 0.41 0.45 0.48 0.49 0.52 0.54 0.59 0.71 0.80 0.83 0.87 0.84 0.81 0.82 0.89 0.99 1.08 1.16 1.21 1.27 1.18 1.15 1.13 1.10 1.03 1.01 1.02 1.10 1.20 1.24 1.20 1.22 1.23 1.27 1.42 1.58 1.67 1.76 1.75 1.73
0.41 0.39 0.38 0.40 0.43 0.46 0.48 0.49 0.52 0.55 0.66 0.73 0.74 0.75 0.75 0.78 0.84 0.82 0.85 0.97 1.12 1.29 1.40 1.33 1.37 1.37 1.33 1.26 1.21 1.14 1.10 1.12 1.17 1.25 1.29 1.30 1.29 1.35 1.51 1.60 1.69 1.75 1.72
0.41 0.43 0.42 0.42 0.42 0.46 0.47 0.46 0.51 0.53 0.55 0.61 0.66 0.68 0.75 0.85 0.91 0.93 0.93 0.98 1.04 1.20 1.33 1.34 1.39 1.40 1.34 1.33 1.35 1.27 1.16 1.11 1.16 1.25 1.32 1.37 1.40 1.45 1.55 1.63 1.67 1.74 1.76
0.40 0.43 0.45 0.46 0.46 0.48 0.53 0.57 0.59 0.62 0.63 0.59 0.59 0.61 0.64 0.75 0.83 0.90 1.01 1.10 1.07 1.13 1.20 1.24 1.27 1.20 1.17 1.18 1.18 1.18 1.13 1.10 1.13 1.16 1.21 1.29 1.39 1.49 1.57 1.66 1.69 1.70 1.72
0.39 0.44 0.48 0.53 0.57 0.55 0.57 0.63 0.65 0.59 0.56 0.56 0.57 0.59 0.62 0.66 0.71 0.78 0.92 1.05 1.06 1.03 1.00 0.99 0.99 0.99 1.00 1.05 1.04 1.04 1.05 1.05 1.06 1.10 1.14 1.20 1.30 1.40 1.47 1.53 1.63 1.73 1.71
0.39 0.48 0.51 0.53 0.56 0.56 0.56 0.61 0.62 0.62 0.62 0.64 0.65 0.69 0.72 0.72 0.74 0.80 0.85 0.92 0.92 0.90 0.91 0.94 0.95 0.97 1.03 1.06 1.07 1.08 1.07 1.07 1.08 1.10 1.13 1.19 1.26 1.35 1.43 1.48 1.56 1.66 1.65
0.42 0.44 0.49 0.52 0.55 0.57 0.57 0.61 0.64 0.64 0.67 0.71 0.70 0.75 0.82 0.79 0.81 0.87 0.95 0.99 1.00 1.00 0.99 0.98 0.96 0.96 1.04 1.09 1.12 1.14 1.15 1.15 1.17 1.19 1.21 1.25 1.32 1.38 1.41 1.49 1.59 1.63 1.69
0.44 0.46 0.47 0.53 0.56 0.59 0.62 0.66 0.71 0.71 0.71 0.75 0.74 0.77 0.85 0.81 0.80 0.81 0.86 0.92 0.97 1.01 1.06 1.09 1.08 1.05 1.06 1.15 1.22 1.25 1.28 1.29 1.27 1.27 1.28 1.31 1.37 1.40 1.43 1.52 1.65 1.68 1.72
0.53 0.54 0.56 0.57 0.59 0.62 0.65 0.68 0.74 0.74 0.74 0.78 0.81 0.80 0.80 0.83 0.84 0.81 0.83 0.86 0.90 0.97 1.04 1.11 1.15 1.13 1.08 1.10 1.18 1.28 1.35 1.35 1.35 1.38 1.45 1.48 1.47 1.47 1.51 1.57 1.64 1.71 1.71
0.57 0.62 0.67 0.70 0.71 0.72 0.73 0.77 0.80 0.78 0.79 0.83 0.85 0.86 0.85 0.89 0.89 0.87 0.88 0.92 0.97 1.02 1.07 1.11 1.13 1.11 1.08 1.07 1.11 1.19 1.27 1.31 1.32 1.37 1.43 1.55 1.58 1.56 1.59 1.67 1.71 1.74 1.82
0.60 0.63 0.67 0.72 0.74 0.76 0.78 0.79 0.83 0.82 0.82 0.85 0.88 0.87 0.90 0.94 0.96 0.93 0.90 0.89 0.94 1.00 1.02 1.06 1.10 1.11 1.10 1.09 1.09 1.15 1.32 1.38 1.36 1.37 1.40 1.50 1.55 1.58 1.64 1.74 1.84 1.87 1.93
0.59 0.64 0.68 0.72 0.76 0.80 0.82 0.82 0.85 0.88 0.89 0.88 0.91 0.95 0.96 0.97 0.97 0.96 0.95 0.94 0.94 0.96 0.97 1.00 1.04 1.05 1.07 1.10 1.14 1.24 1.32 1.24 1.22 1.31 1.34 1.43 1.52 1.53 1.58 1.66 1.70 1.77 1.85